Погода в Курахе

Россия / Республика Дагестан     41°35′04″N   47°47′07″E
темп.,
°C
ветер,
м/с
пор.,
м/с
влажн.,
%
обл.,
%
осадки,
мм/ч
давл.,
гПа
погр.,
м
17 апреля, сб
сб1700:00+5з45675 0.0 102172
03:00+4з46669 0.0 102179
06:00+5з35576 0.0 102175
09:00+13ююз023192 0.0 1018985
12:00+16ююв143099 0.0 10162049
15:00+16вюв133534 0.0 10151685
18:00+12в2265100 0.0 1018170
21:00+9ю0176100 0.0 102094
18 апреля, вс
вс1800:00+8з2265100 0.0 101934
03:00+7з2362100 0.0 101849
06:00+8з1268100 0.0 101842
09:00+12вюв1353100 0.0 1016755
12:00+15вюв245060 0.0 10141142
15:00+16вюв264510 0.0 10131619
18:00+9в2287100 0.0 1017239
21:00+10зсз1273100 0.3 101786
19 апреля, пн
пн1900:00+8ссз1178100 0.0 101825
03:00+7з1186100 0.0 101963
06:00+8з337167 0.0 101873
09:00+14сз124232 0.0 10161185
12:00+14в435593 0.1 1015981
15:00+12в426454 0.3 1016743
18:00+11вюв116919 0.1 1016123
21:00+10зюз3462100 0.1 101660
20 апреля, вт
вт2000:00+9з346294 0.0 101651
03:00+9з3464100 0.0 101547
06:00+10з4559100 0.0 101468
09:00+17з2345100 0.0 1011313
12:00+22зюз482499 0.0 10092566
15:00+21зюз5112565 0.0 10082589
18:00+17юз3442100 0.0 100862
21:00+14зюз4552100 0.0 101193
21 апреля, ср
ср2100:00+13зюз4651100 0.0 101280
03:00+12зюз455599 0.0 101372
06:00+12зюз23611 0.0 101450
09:00+15в35565 0.0 1014996
12:00+16в465553 0.0 10141251
15:00+12вюв337717 0.7 1015379
18:00+9всв219357 4.3 1017175
21:00+8ссв009594 4.4 1019225